Location: La Trinit�
(48.1620°N, 3.4512°W)
Time: 09:47:59
(UTC+00:00)

Gbstr 26 Del rocket - Pass Details

Date: 08 May 2021
Orbit: 493 x 1263 km, 51.8° (Epoch: 12 June)

Event Time Altitude Azimuth Distance (km) Brightness Sun altitude
Rises 22:22:10 0° 279° (W) 4,140 7.8 -20.2°
Reaches altitude 10° 22:25:11 10° 282° (WNW) 3,109 7.1 -20.4°
Maximum altitude 22:32:44 66° 4° (N) 1,141 4.5 -21.0°
Drops below altitude 10° 22:39:01 10° 87° (E) 2,599 6.0 -21.4°
Enters shadow 22:40:04 - 89° (E) 2,970 6.3 -21.5°
